Location: Bremen
(53.0793°N, 8.8017°E)
Time: 23:20:03
(UTC+01:00)

Explorer 7 - Pass Details

Date: 06 December 2021
Orbit: 483 x 674 km, 50.3° (Epoch: 17 January)

Event Time Altitude Azimuth Distance (km) Brightness Sun altitude
Rises 06:20:17 0° 235° (SW) 2,828 - -17.2°
Reaches altitude 10° 06:22:43 10° 228° (SW) 1,893 - -16.8°
Exits shadow 06:23:09 12° 226° (SW) 1,736 9.1 -16.8°
Maximum altitude 06:26:44 39° 160° (SSE) 847 8.0 -16.2°
Drops below altitude 10° 06:30:32 10° 91° (E) 1,788 10.6 -15.7°
Sets 06:32:47 0° 83° (E) 2,649 11.6 -15.4°
